Columbus, OH

9:49 PM EDT on October 19, 2017 (GMT -0400)
Port Columbus International

Weather History for KCMH - October, 2011

Change the Weather History Date:

Sunday, October 23, 2011

  Actual Average Record
Temperature  
Mean Temperature 50 °F 53 °F  
Max Temperature 63 °F 63 °F 83 °F (1947)
Min Temperature 37 °F 43 °F 23 °F (1969)
Degree Days  
Heating Degree Days 15 13  
Month to date heating degree days 181 214  
Since 1 July heating degree days 252 283  
Cooling Degree Days 0 0  
Month to date cooling degree days 9 13  
Year to date cooling degree days 1262 1024  
Moisture  
Dew Point 39 °F    
Average Humidity 68    
Maximum Humidity 92    
Minimum Humidity 43    
Precipitation  
Precipitation 0.00 in 0.08 in 2.31 in (2007)
Month to date precipitation 3.17 1.93  
Year to date precipitation 44.24 32.46  
Snow  
Snow 0.00 in 0.00 in 0.60 in (1917)
Month to date snowfall 0.0 0.1  
Since 1 July snowfall 0.0 0.1  
Since 1 September snowfall 0.0 0.1  
Snow Depth 0.00 in    
Sea Level Pressure  
Sea Level Pressure 30.07 in    
Wind  
Wind Speed 5 mph (South)    
Max Wind Speed 16 mph    
Max Gust Speed 20 mph    
Visibility 10 miles    
Events      
T = Trace of Precipitation, MM = Missing Value Source: NWS Daily Summary

Daily Weather History Graph

Daily Weather History Graph

Search for Another Location

Airport or City:

Trip Planner

Search our weather history database for the weather conditions in past years. The results will help you decide how hot, cold, wet, or windy it might be!

Date:

Astronomy

Oct. 23, 2011 Rise Set
Actual Time 7:50 AM EDT 6:40 PM EDT
Civil Twilight 7:22 AM EDT 7:08 PM EDT
Nautical Twilight 6:51 AM EDT 7:40 PM EDT
Astronomical Twilight 6:19 AM EDT 8:11 PM EDT
Moon 3:56 AM EDT (10/23) 4:31 PM EDT (10/23)
Length of Visible Light 11h 45m
Length of Day
10h 50m
Waning Crescent, 14% of the Moon is Illuminated
Oct 23
Waning Crescent
Oct 26
New
Nov 2
First Quarter
Nov 10
Full
Nov 18
Last Quarter

Hourly Weather History & Observations

Time (EDT) Temp. Windchill Dew Point Humidity Pressure Visibility Wind Dir Wind Speed Gust Speed Precip Events Conditions
12:51 AM 42.1 °F - 39.0 °F 89% 30.10 in 10.0 mi Calm Calm - N/A   Partly Cloudy
1:51 AM 41.0 °F - 37.0 °F 86% 30.10 in 10.0 mi Calm Calm - N/A   Partly Cloudy
2:51 AM 39.0 °F 36.8 °F 37.0 °F 93% 30.08 in 10.0 mi East 3.5 mph - N/A   Clear
3:51 AM 39.0 °F - 36.0 °F 89% 30.07 in 10.0 mi Calm Calm - N/A   Clear
4:51 AM 39.9 °F - 36.0 °F 86% 30.09 in 10.0 mi Calm Calm - N/A   Clear
5:51 AM 39.0 °F - 37.0 °F 93% 30.09 in 10.0 mi Calm Calm - N/A   Partly Cloudy
6:51 AM 37.9 °F - 36.0 °F 93% 30.10 in 10.0 mi Calm Calm - N/A   Mostly Cloudy
7:51 AM 37.9 °F - 36.0 °F 93% 30.11 in 10.0 mi Calm Calm - N/A   Mostly Cloudy
8:51 AM 39.9 °F 37.8 °F 36.0 °F 86% 30.12 in 10.0 mi SE 3.5 mph - N/A   Scattered Clouds
9:51 AM 46.0 °F 43.9 °F 39.0 °F 76% 30.12 in 10.0 mi South 4.6 mph - N/A   Scattered Clouds
10:51 AM 51.1 °F - 39.9 °F 66% 30.12 in 10.0 mi SSW 4.6 mph - N/A   Scattered Clouds
11:51 AM 55.9 °F - 41.0 °F 57% 30.11 in 10.0 mi SSW 6.9 mph - N/A   Scattered Clouds
12:51 PM 59.0 °F - 41.0 °F 51% 30.09 in 10.0 mi SSW 8.1 mph - N/A   Mostly Cloudy
1:51 PM 62.1 °F - 41.0 °F 46% 30.06 in 10.0 mi SSW 10.4 mph - N/A   Mostly Cloudy
2:51 PM 61.0 °F - 39.0 °F 44% 30.05 in 10.0 mi SSW 11.5 mph - N/A   Overcast
3:51 PM 62.1 °F - 39.0 °F 43% 30.04 in 10.0 mi SSW 11.5 mph 19.6 mph N/A   Overcast
4:51 PM 62.1 °F - 39.0 °F 43% 30.03 in 10.0 mi South 11.5 mph - N/A   Overcast
5:51 PM 61.0 °F - 39.9 °F 46% 30.02 in 10.0 mi South 8.1 mph - N/A   Overcast
6:51 PM 59.0 °F - 41.0 °F 51% 30.03 in 10.0 mi South 8.1 mph - N/A   Mostly Cloudy
7:51 PM 55.4 °F - 42.8 °F 63% 30.04 in 10.0 mi South 5.8 mph - N/A   Overcast
8:51 PM 55.0 °F - 41.0 °F 59% 30.05 in 10.0 mi Variable 4.6 mph - N/A   Mostly Cloudy
9:51 PM 53.1 °F - 42.1 °F 66% 30.05 in 10.0 mi SSE 4.6 mph - N/A   Mostly Cloudy
10:51 PM 52.0 °F - 42.1 °F 69% 30.04 in 10.0 mi South 4.6 mph - N/A   Mostly Cloudy
11:51 PM 52.0 °F - 41.0 °F 66% 30.04 in 10.0 mi SE 3.5 mph - N/A   Overcast